カタログに戻る

FENGYUN 1C DEB

運用中SSO
NORAD 30181·DEBRIS·🇨🇳 China

打ち上げ May 10, 1999 から Taiyuan Satellite Launch Center

Loading…

次のパス (今後24時間)

TLE

最新Source: Space-Track

元期: Sep 14, 2026, 04:45 UTC

1 30181U 99025UN  26257.19838574  .00002298  00000-0  88238-3 0  9998
2 30181  98.8363 349.6924 0039093 271.5896 117.8351 14.31062996 14317

AllMySatでFENGYUN 1C DEBをリアルタイム追跡

Download on the App Store